Cross City, FL

6:08 AM EDT on May 27, 2017 (GMT -0400)
Cross City

Weather History for KCTY - August, 2013

Change the Weather History Date:

Friday, August 16, 2013

  Actual Average Record
Temperature  
Mean Temperature 81 °F 81 °F  
Max Temperature 87 °F 91 °F 95 °F (2011)
Min Temperature 74 °F 72 °F 70 °F (2004)
Degree Days  
Heating Degree Days 0 0  
Month to date heating degree days 0 0  
Since 1 June heating degree days 0 0  
Since 1 July heating degree days 0 0  
Cooling Degree Days 16 16  
Month to date cooling degree days 297 266  
Year to date cooling degree days 1800 1700  
Since 1 June cooling degree days 1265 1221  
Growing Degree Days 30 (Base 50)    
Moisture  
Dew Point 74 °F    
Average Humidity 89    
Maximum Humidity 100    
Minimum Humidity 74    
Precipitation  
Precipitation 1.33 in 0.23 in 1.33 in (2013)
Month to date precipitation 3.50 3.62  
Year to date precipitation 46.40 31.54  
Sea Level Pressure  
Sea Level Pressure 30.01 in    
Wind  
Wind Speed 3 mph (SSE)    
Max Wind Speed 15 mph    
Max Gust Speed 18 mph    
T = Trace of Precipitation, MM = Missing Value Source: NWS Daily Summary

Daily Weather History Graph

Daily Weather History Graph

Search for Another Location

Airport or City:

Trip Planner

Search our weather history database for the weather conditions in past years. The results will help you decide how hot, cold, wet, or windy it might be!

Date:

Astronomy

Aug. 16, 2013 Rise Set
Actual Time 7:01 AM EDT 8:11 PM EDT
Civil Twilight 6:36 AM EDT 8:36 PM EDT
Nautical Twilight 6:06 AM EDT 9:06 PM EDT
Astronomical Twilight 5:35 AM EDT 9:36 PM EDT
Moon 4:21 PM EDT (8/16) 2:11 AM EDT (8/16)
Length of Visible Light 14h 00m
Length of Day
13h 10m
Waxing Gibbous, 74% of the Moon is Illuminated
Aug 16
Waxing Gibbous
Aug 20
Full
Aug 28
Last Quarter
Sep 5
New
Sep 12
First Quarter

Hourly Weather History & Observations

Time (EDT) Temp. Heat Index Dew Point Humidity Pressure Visibility Wind Dir Wind Speed Gust Speed Precip Events Conditions
12:53 AM 77.0 °F - 73.9 °F 90% 30.00 in - Calm Calm - N/A   Unknown
1:53 AM 77.0 °F - 75.0 °F 94% 29.99 in - Calm Calm - N/A   Unknown
2:53 AM 75.9 °F - 73.9 °F 94% 29.98 in - Calm Calm - N/A   Unknown
3:53 AM 75.9 °F - 73.0 °F 91% 29.98 in - SSE 4.6 mph - N/A   Unknown
4:53 AM 73.9 °F - 73.0 °F 97% 29.99 in - South 5.8 mph - 0.55 in   Unknown
5:53 AM 73.9 °F - 73.0 °F 97% 29.99 in - Calm Calm - 0.12 in   Unknown
6:53 AM 75.0 °F - 73.9 °F 96% 30.01 in - Calm Calm - N/A   Unknown
7:53 AM 75.0 °F - 73.9 °F 96% 30.02 in - Calm Calm - 0.03 in   Unknown
8:53 AM 75.0 °F - 73.9 °F 96% 30.04 in - SE 3.5 mph - 0.29 in   Unknown
9:53 AM 75.9 °F - 73.9 °F 94% 30.03 in - Calm Calm - 0.05 in   Unknown
10:53 AM 79.0 °F - 75.0 °F 88% 30.03 in - SE 4.6 mph - N/A   Unknown
11:53 AM 82.9 °F 90.8 °F 75.9 °F 79% 30.03 in - SE 4.6 mph - N/A   Unknown
12:53 PM 86.0 °F 96.9 °F 77.0 °F 74% 30.01 in - Variable 3.5 mph - N/A   Unknown
1:53 PM 84.0 °F 91.9 °F 75.0 °F 74% 30.00 in - South 5.8 mph - N/A   Unknown
2:53 PM 82.9 °F 90.8 °F 75.9 °F 79% 29.99 in - South 12.7 mph - N/A   Unknown
3:53 PM 79.0 °F - 73.9 °F 84% 29.99 in - SSE 5.8 mph - N/A   Unknown
4:53 PM 79.0 °F - 73.9 °F 84% 29.97 in - South 3.5 mph - N/A   Unknown
5:53 PM 77.0 °F - 75.0 °F 94% 30.00 in - Calm Calm - 0.24 in   Unknown
6:53 PM 78.1 °F - 73.9 °F 87% 30.00 in - Calm Calm - 0.02 in   Unknown
7:53 PM 78.1 °F - 75.0 °F 90% 30.01 in - West 6.9 mph - 0.01 in   Unknown
8:53 PM 77.0 °F - 75.0 °F 94% 30.03 in - Calm Calm - N/A   Unknown
9:53 PM 75.9 °F - 75.0 °F 97% 30.04 in - Calm Calm - 0.01 in   Unknown
10:53 PM 77.0 °F - 75.0 °F 94% 30.05 in - Calm Calm - N/A   Unknown
11:53 PM 75.9 °F - 73.9 °F 94% 30.05 in - Calm Calm - N/A   Unknown